Regional Weather Roundup
Issued by NWS Charleston, SC

Current Version | Previous Version | Graphics & Text | Print | Product List | Glossary On
Versions: 1 2 3 4 5 6 7 8 9 10 11 12 13 14 15 16 17 18 19 20 21 22 23 24 25 26 27 28 29 30 31 32 33 34 35 36 37 38 39 40 41 42 43 44 45 46 47 48 49 50
000
ASUS42 KCHS 240913
RWRCHS

REGIONAL WEATHER ROUNDUP
NATIONAL WEATHER SERVICE CHARLESTON SC
500 AM EDT TUE MAY 24 2016

NOTE: "FAIR" INDICATES FEW OR NO CLOUDS BELOW 12,000 FEET WITH NO
SIGNIFICANT WEATHER AND/OR OBSTRUCTIONS TO VISIBILITY.

NOT ALL STATIONS ARE QUALITY CONTROLLED. USE DATA WITH CAUTION...
ESPECIALLY DEWPOINT OBSERVATIONS.

SCZ027-030-031-034>040-042>050-241000-
...SOUTHEAST SOUTH CAROLINA...

CITY           SKY/WX    TMP DP  RH WIND       PRES   REMARKS
N CHARLESTON   PTCLDY    58  53  84 NE5       30.06S
WATERFRONT PRK   N/A     66  58  75 VRB2      30.05R
MOUNT PLEASANT FAIR      55  54  94 CALM      30.07R FOG
JOHNS ISLAND   FAIR      59  57  94 CALM      30.06S
PINOPOLIS        N/A     63  55  77 CALM      29.98F
MONCKS CORNER  FAIR      50  48  93 CALM      30.08R FOG
SUMMERVILLE    FAIR      55  55 100 CALM      30.08S
BEAUFORT MCAS  CLEAR     64  58  80 CALM      30.07R
BEAUFORT ARPT  FAIR      64  57  77 NE6       30.06R
HILTON HEAD IS CLEAR     63  61  94 CALM      30.06S
WALTERBORO     MOSUNNY   59  59 100 CALM      30.08S
ALLENDALE      PTSUNNY   63  55  77 CALM      30.07R

...SOUTHERN MIDLANDS AND PEE DEE...

CITY           SKY/WX    TMP DP  RH WIND       PRES   REMARKS
GEORGETOWN     FAIR      50  48  93 CALM      30.08S
KINGSTREE      FAIR      50  46  87 CALM      30.08R
ORANGEBURG     PTCLDY    58  55  90 CALM      30.08R
BARNWELL       FAIR      63  61  94 CALM      30.09R
AIKEN          PTSUNNY   59  52  77 SE5       30.11R
MANNING        FAIR      50  50 100 CALM      30.08S
COLUMBIA       MOCLDY    58  54  86 SW3       30.07R
SUMTER         CLEAR     55  51  87 CALM      30.06R
FLORENCE       CLEAR     54  52  93 W5        30.07S
MYRTLE BEACH   CLEAR     55  46  71 CALM      30.08S
N MYRTLE BEACH CLEAR     53  52  96 NW5       30.06R

$$

GAZ063-065-086>088-099>101-113>116-118-119-134>141-150-241000-
...SOUTHEAST GEORGIA...

CITY           SKY/WX    TMP DP  RH WIND       PRES   REMARKS
SAVANNAH ARPT  CLEAR     63  59  87 CALM      30.06R
HUNTER AAF     CLEAR     63  63 100 CALM      30.03R
FORT STEWART   CLEAR     59  57  92 CALM      30.03R
STATESBORO     CLEAR     59  58  96 CALM      30.06R
SYLVANIA       SUNNY     64  56  77 SE3       30.08R
CLAXTON        FAIR      57  57 100 CALM      30.06R

...CSRA...CENTRAL AND FAR SOUTHEAST GEORGIA...

CITY           SKY/WX    TMP DP  RH WIND       PRES   REMARKS
THOMSON        CLEAR     57  57  98 E3        30.11S
AUGUSTA-BUSH   CLEAR     56  55  97 CALM      30.07R
AUGUSTA-DANIEL CLEAR     64  52  64 E6        30.08R
SWAINSBORO     FAIR      61  55  82 CALM      30.07R
VIDALIA        CLEAR     61  57  88 E5        30.05S
EASTMAN        FOG       57  57 100 CALM      30.06S VSB 1/2
HAZLEHURST     FAIR      65  57  76 CALM      30.03S
ALMA           CLEAR     57  57 100 CALM      30.04R
WAYCROSS       CLEAR     60  58  92 CALM      30.04S
JESUP          FAIR      52  50  93 CALM      30.05S
BAXLEY         FAIR      61  59  94 CALM      30.04R
BRUNSWICK      CLEAR     61  59  94 CALM      30.06R FOG
SAINT SIMONS   CLEAR     66  61  84 CALM      30.05R

$$

SCZ027-028-034-036>038-045-046-048>050-GAZ119-141-241000-
...LAKE AND SUPPLEMENTAL COASTAL OBSERVATIONS...

STATION/POSITION TIME  TEMP    WIND        PRES    WAVE   SWELL
                       AIR SEA DIR/SP/G            HT/PER HT/PER/DIR
                 (UTC) (F)     (DEG/KT/KT) (MB)    (FT/S) (FT/S/D)
WINYAH BAY       NOT AVBL
LAKE MURRAY      0800   65      90/  5/  7 1017.6S
ACE BASIN NERRS  NOT AVBL
FORT PULASKI     0800   71 75  100/  4/  5 1017.6F
SAPELO ISLAND    0800   63        CALM     1017.0S

$$

ANZ835-935-AMZ111-154-330-350-352-354-370-450-454-472-241000-
...C-MAN AND BUOY OBSERVATIONS...

STATION/POSITION TIME  TEMP    WIND        PRES    WAVE   SWELL
                       AIR SEA DIR/SP/G            HT/PER HT/PER/DIR
                 (UTC) (F)     (DEG/KT/KT) (MB)    (FT/S) (FT/S/D)
BUOY 41004       0850   70 75   20/  6/  8 1017.7R   2/ 9   2/ 9
BUOY 41008       0850   75 76  140/  4/  6 1017.5R   2/ 8   2/100/ 8
FOLLY BEACH CMAN 0900   67     360/  6/  7 1018.0F
CAPERS NEARSHORE 0808   69 74  360/  8/ 12 1017.7R
FRIPP NEARSHORE  0808   72 75   70/  8/ 10 1017.0R


STATION/POSITION TIME  TEMP    WIND        PRES    WAVE   SWELL
                       AIR SEA DIR/SP/G            HT/PER HT/PER/DIR
                 (UTC) (F)     (DEG/KT/KT) (MB)    (FT/S) (FT/S/D)
5E ST. MARYS GA  0821      77                N/A     2/ 9
FRYING PAN BUOY  0800   67 76  330/ 10/ 14 1016.9F
BUOY 41025       0850   65 68  280/ 14/ 16 1015.8R   4/ 9   3/ 80/ 9
CAPE LOOKOUT NC  0900   62     300/ 12/ 13 1016.4R
BUOY 41002       0850   73 77  260/ 10/ 14 1016.6R   4/ 6   3/340/ 6
BUOY 41010       0820   76 78   80/  8/ 10 1017.3S
ST AUGUSTINE FL  0900   77 78  130/  9/  9 1017.9R


$$



USA.gov is the U.S. government's official web portal to all federal, state and local government web resources and services.